Starlink 33650

operational
NORAD ID: 63321 Int'l Des: 2025-057 Owner: SPXS Country: US Constellation: starlink
LEOCIRCULAR

关于 Starlink 33650

正在加载描述...

实时位置

正在加载3D地球...

即将过境

高度历史

Altitude vs Time

uPlot chart will show altitude changes over time

两行轨道根数

1 63321U 25057Q 25259.45856961 .00028115 00000-0 10266-2 0 9995
2 63321 43.0008 294.5934 0001462 275.6981 84.3704 15.27602162 29097
Epoch: Sep 16, 2025 • Age: 10 hours

当前状态

高度 483.5 km
速度 7.63 km/s
星下点 24.73°N, 131.13°E
发射日期 Mar 18, 2025
运行时间 0.4 years
类型 internet

技术详情

分类 Payload
质量 575.00 kg
干质量 530.00 kg
总质量 575.00 kg
长度 0.30 m
直径 4.10 m
跨度 29.00 m
形状 Box + pan
制造商 SPXS
平台类型 Starlink V2MO
阶段状态 In Orbit
所有者/国家 SPXS/US

大型星座

Loading constellations...